Lake Hudson Weather Center

Moon Phase Calendar



Lake Hudson Water Level
Online Cameras

 


      

Current Conditions in Salina
10/21/2021 6:32:37 AM

45°F
Feels Like 42
Clear
Humidity
96%
Pressure
30.18"
Wind
5.7 mph (NNW)
Dew Point
44°F
UV Index
0/10 (Low)
Visibility
6 mi

Hourly Forecast

Date & Time Thu, Oct 21
6:00 AM
Thu, Oct 21
7:00 AM
Thu, Oct 21
8:00 AM
Thu, Oct 21
9:00 AM
Thu, Oct 21
10:00 AM
Thu, Oct 21
11:00 AM
Thu, Oct 21
12:00 PM
Thu, Oct 21
1:00 PM
Thu, Oct 21
2:00 PM
Thu, Oct 21
3:00 PM
Thu, Oct 21
4:00 PM
Thu, Oct 21
5:00 PM
Thu, Oct 21
6:00 PM
Thu, Oct 21
7:00 PM
Thu, Oct 21
8:00 PM
Thu, Oct 21
9:00 PM
Thu, Oct 21
10:00 PM
Thu, Oct 21
11:00 PM
Fri, Oct 22
12:00 AM
Fri, Oct 22
1:00 AM
Fri, Oct 22
2:00 AM
Fri, Oct 22
3:00 AM
Fri, Oct 22
4:00 AM
Fri, Oct 22
5:00 AM
Fri, Oct 22
6:00 AM
Fri, Oct 22
7:00 AM
Fri, Oct 22
8:00 AM
Fri, Oct 22
9:00 AM
Fri, Oct 22
10:00 AM
Fri, Oct 22
11:00 AM
Fri, Oct 22
12:00 PM
Fri, Oct 22
1:00 PM
Fri, Oct 22
2:00 PM
Fri, Oct 22
3:00 PM
Fri, Oct 22
4:00 PM
Fri, Oct 22
5:00 PM
Fri, Oct 22
6:00 PM
Fri, Oct 22
7:00 PM
Fri, Oct 22
8:00 PM
Fri, Oct 22
9:00 PM
Fri, Oct 22
10:00 PM
Fri, Oct 22
11:00 PM
Sat, Oct 23
12:00 AM
Sat, Oct 23
1:00 AM
Sat, Oct 23
2:00 AM
Sat, Oct 23
3:00 AM
Sat, Oct 23
4:00 AM
Sat, Oct 23
5:00 AM
Condition
Clear

Clear

Clear

Clear

Clouds

Clouds

Clouds

Clouds

Clouds

Clouds

Clouds

Clouds

Clouds

Clouds

Clouds

Clouds

Clouds

Clouds

Clouds

Clouds

Clouds

Clouds

Clouds

Clouds

Clouds

Clouds

Clear

Clear

Clear

Clear

Clear

Clear

Clear

Clear

Clear

Clear

Clear

Clear

Clear

Clear

Clear

Clear

Clear

Clear

Clear

Clear

Rain

Rain
Temperature 46°F45°F46°F48°F52°F57°F63°F65°F67°F68°F68°F67°F63°F58°F56°F56°F55°F55°F54°F54°F54°F54°F54°F53°F52°F51°F51°F57°F62°F67°F70°F73°F74°F75°F75°F74°F70°F65°F63°F62°F62°F62°F62°F63°F63°F63°F63°F62°F
Feels Like 43°F42°F43°F45°F50°F55°F61°F63°F65°F66°F66°F65°F61°F56°F54°F54°F53°F53°F52°F52°F52°F51°F52°F50°F49°F49°F49°F55°F60°F65°F69°F71°F73°F74°F74°F73°F69°F63°F61°F61°F61°F61°F62°F62°F62°F62°F62°F62°F
Cloudiness 0%0%0%0%17%29%38%40%27%60%42%33%31%36%30%65%77%82%86%88%100%100%100%99%86%71%0%0%0%0%0%0%0%0%0%0%0%0%0%0%0%0%0%0%5%7%28%46%
Visibility 6 mi6 mi6 mi6 mi6 mi6 mi6 mi6 mi6 mi6 mi6 mi6 mi6 mi6 mi6 mi6 mi6 mi6 mi6 mi6 mi6 mi6 mi6 mi6 mi6 mi6 mi6 mi6 mi6 mi6 mi6 mi6 mi6 mi6 mi6 mi6 mi6 mi6 mi6 mi6 mi6 mi6 mi6 mi6 mi6 mi6 mi6 mi6 mi
Precipitation 0%0%0%0%0%0%0%0%0%0%0%0%0%0%0%0%0%0%0%0%0%0%0%0%0%0%0%0%0%0%0%0%0%0%0%0%0%0%0%0%0%0%11%11%37%48%53%68%
Humidity 89%96%89%80%66%50%35%33%33%34%35%38%49%52%55%56%56%57%59%59%59%60%59%61%63%64%64%57%48%42%37%34%33%33%35%41%50%58%62%65%66%67%68%68%69%70%73%81%
Dew Point 43°F44°F43°F42°F41°F39°F35°F36°F37°F38°F39°F40°F43°F40°F40°F40°F40°F40°F40°F40°F40°F40°F39°F39°F39°F39°F39°F41°F42°F42°F43°F43°F43°F44°F46°F49°F50°F49°F49°F49°F50°F51°F51°F52°F52°F53°F54°F56°F
Pressure 30.18"30.18"30.18"30.18"30.21"30.21"30.21"30.18"30.15"30.15"30.12"30.12"30.12"30.15"30.15"30.15"30.15"30.15"30.12"30.12"30.12"30.12"30.09"30.09"30.09"30.09"30.09"30.12"30.09"30.06"30.06"30"29.97"29.94"29.91"29.91"29.88"29.91"29.91"29.91"29.91"29.88"29.88"29.85"29.85"29.85"29.85"29.85"
Wind Speed 5.4 mph5.7 mph5.8 mph6.6 mph8.8 mph9.3 mph9.2 mph9.9 mph10 mph9.4 mph8.9 mph8 mph4.7 mph3.4 mph2.7 mph2.2 mph2.8 mph3.3 mph3.7 mph4.1 mph4.4 mph3.7 mph3.9 mph3.1 mph3.5 mph4.1 mph4.1 mph4.2 mph5.1 mph7.5 mph9.2 mph10.4 mph11.3 mph11.6 mph11.8 mph10.1 mph7.7 mph6.8 mph6.2 mph6.7 mph8 mph8.6 mph9.5 mph10.3 mph10.4 mph10.9 mph11.1 mph10 mph
Wind
Direction
332°
NNW
341°
NNW
348°
NNW
348°
NNW
345°
NNW
338°
NNW
330°
NNW
328°
NNW
331°
NNW
334°
NNW
338°
NNW
345°
NNW

N
21°
NNE
46°
NE
76°
ENE
83°
E
94°
E
111°
ESE
115°
ESE
123°
ESE
117°
ESE
127°
SE
114°
ESE
121°
ESE
127°
SE
138°
SE
153°
SSE
171°
S
183°
S
191°
S
192°
SSW
196°
SSW
196°
SSW
194°
SSW
189°
S
180°
S
175°
S
179°
S
172°
S
166°
SSE
165°
SSE
168°
SSE
175°
S
175°
S
177°
S
181°
S
186°
S

Daily Forecast

Date High Low Precip. Humidity
Today
Oct 21

Clouds
68 °F
45 °F
0%
33%
Friday
Oct 22

Clear
75 °F
51 °F
0%
34%
Saturday
Oct 23

Rain
83 °F
62 °F
63%
54%
Sunday
Oct 24

Rain
77 °F
69 °F
98%
70%
Monday
Oct 25

Rain
71 °F
55 °F
96%
51%
Tuesday
Oct 26

Clouds
77 °F
51 °F
0%
56%
Wednesday
Oct 27

Rain
65 °F
54 °F
100%
95%
Thursday
Oct 28

Clouds
65 °F
51 °F
33%
82%
Friday
Oct 29

Clear
64 °F
45 °F
0%
35%
Saturday
Oct 30

Clear
72 °F
47 °F
0%
40%
Sunday
Oct 31

Clear
75 °F
55 °F
0%
52%
Monday
Nov 1

Clear
67 °F
52 °F
0%
42%
Tuesday
Nov 2

Clouds
75 °F
58 °F
11%
72%
Wednesday
Nov 3

Clouds
78 °F
66 °F
0%
62%
Thursday
Nov 4

Clouds
75 °F
67 °F
0%
67%
Friday
Nov 5

Clouds
74 °F
68 °F
5%
69%

Temperature 8-14 Day Outlook



Precipitation 8-14 Day Outlook




Quick Links
Lake Hudson News
Lake Hudson Photos
Lake Hudson Videos




About Us
Contact Us
Site Map
Search Site
Advertise With Us
   
Hudson.USLakes.info
THE LAKE HUDSON WEBSITE

Copyright 2021, Lakes Online
Privacy    |    Legal